Trenton, NJ

1:47 AM EDT on April 22, 2018 (GMT -0400)
Trenton Mercer

Weather History for KTTN - October, 2011

Change the Weather History Date:

Friday, October 14, 2011

  Actual Average Record
Temperature  
Mean Temperature 66 °F 55 °F  
Max Temperature 75 °F 66 °F 86 °F (1975)
Min Temperature 57 °F 44 °F 30 °F (1988)
Degree Days  
Heating Degree Days 0 10  
Month to date heating degree days 57 114  
Since 1 July heating degree days 84 179  
Cooling Degree Days 1 0  
Month to date cooling degree days 12 7  
Year to date cooling degree days 1437 962  
Growing Degree Days 15 (Base 50)    
Moisture  
Dew Point 62 °F    
Average Humidity 78    
Maximum Humidity 93    
Minimum Humidity 62    
Precipitation  
Precipitation 0.16 in 0.10 in 3.25 in (1955)
Month to date precipitation 0.48 2.01  
Year to date precipitation 48.84 37.26  
Sea Level Pressure  
Sea Level Pressure 29.50 in    
Wind  
Wind Speed 9 mph (SSW)    
Max Wind Speed 23 mph    
Max Gust Speed 31 mph    
Visibility 8 miles    
Events Rain , Thunderstorm    
T = Trace of Precipitation, MM = Missing Value Source: NWS Daily Summary

Daily Weather History Graph

Daily Weather History Graph

Search for Another Location

Airport or City:

Astronomy

Oct. 14, 2011 Rise Set
Actual Time 7:08 AM EDT 6:21 PM EDT
Civil Twilight 6:41 AM EDT 6:48 PM EDT
Nautical Twilight 6:09 AM EDT 7:20 PM EDT
Astronomical Twilight 5:38 AM EDT 7:51 PM EDT
Moon 7:32 PM EDT (10/14) 9:35 AM EDT (10/14)
Length of Visible Light 12h 07m
Length of Day
11h 12m
Waning Gibbous, 94% of the Moon is Illuminated
Oct 14
Waning Gibbous
Oct 19
Last Quarter
Oct 26
New
Nov 2
First Quarter
Nov 10
Full

Hourly Weather History & Observations

Time (EDT) Temp. Dew Point Humidity Pressure Visibility Wind Dir Wind Speed Gust Speed Precip Events Conditions
12:15 AM 68.0 °F 66.2 °F 94% 29.63 in 3.0 mi SSE 10.4 mph - 0.10 in Rain Light Rain
12:23 AM 68.0 °F 66.2 °F 94% 29.62 in 4.0 mi SSE 8.1 mph - 0.14 in Rain , Thunderstorm Light Rain
12:46 AM 69.8 °F 66.2 °F 88% 29.61 in 10.0 mi SSE 6.9 mph - 0.14 in Thunderstorm Thunderstorm
12:53 AM 69.1 °F 66.0 °F 90% 29.59 in 10.0 mi South 6.9 mph - 0.14 in Thunderstorm Thunderstorm
1:00 AM 69.8 °F 66.2 °F 88% 29.61 in 10.0 mi South 8.1 mph - N/A   Overcast
1:07 AM 69.8 °F 66.2 °F 88% 29.61 in 10.0 mi South 8.1 mph - N/A   Overcast
1:53 AM 70.0 °F 66.9 °F 90% 29.57 in 10.0 mi South 6.9 mph - N/A   Overcast
2:19 AM 71.6 °F 68.0 °F 88% 29.58 in 9.0 mi South 6.9 mph - N/A   Overcast
2:53 AM 71.1 °F 68.0 °F 90% 29.55 in 10.0 mi South 9.2 mph - N/A   Overcast
3:53 AM 72.0 °F 68.0 °F 87% 29.54 in 10.0 mi SSW 11.5 mph - 0.00 in Rain Light Rain
4:53 AM 71.1 °F 66.0 °F 84% 29.53 in 10.0 mi SSW 8.1 mph - 0.00 in   Mostly Cloudy
5:04 AM 71.6 °F 66.2 °F 83% 29.55 in 10.0 mi SSW 8.1 mph - N/A   Scattered Clouds
5:53 AM 71.1 °F 66.0 °F 84% 29.52 in 10.0 mi SSW 8.1 mph - N/A   Mostly Cloudy
6:16 AM 71.6 °F 66.2 °F 83% 29.54 in 10.0 mi SSW 5.8 mph - N/A   Overcast
6:50 AM 68.0 °F 64.4 °F 88% 29.53 in 10.0 mi South 3.5 mph - N/A   Mostly Cloudy
6:53 AM 68.0 °F 64.4 °F 88% 29.53 in 10.0 mi Calm Calm - N/A   Scattered Clouds
7:53 AM 68.0 °F 66.0 °F 93% 29.52 in 5.0 mi South 4.6 mph - N/A   Scattered Clouds
8:01 AM 69.8 °F 66.2 °F 88% 29.53 in 6.0 mi South 3.5 mph - N/A   Mostly Cloudy
8:09 AM 69.8 °F 66.2 °F 88% 29.53 in 6.0 mi South 5.8 mph - N/A   Mostly Cloudy
8:25 AM 69.8 °F 66.2 °F 88% 29.53 in 8.0 mi SSW 5.8 mph - N/A   Overcast
8:48 AM 71.6 °F 66.2 °F 83% 29.52 in 9.0 mi SSW 8.1 mph - N/A   Overcast
8:53 AM 71.6 °F 66.2 °F 83% 29.52 in 9.0 mi SSW 8.1 mph - N/A   Overcast
9:15 AM 71.6 °F 66.2 °F 83% 29.51 in 10.0 mi SSW 3.5 mph - N/A   Mostly Cloudy
9:53 AM 70.0 °F 66.0 °F 87% 29.49 in 10.0 mi South 6.9 mph - N/A   Overcast
10:53 AM 70.0 °F 66.0 °F 87% 29.47 in 9.0 mi South 8.1 mph - N/A   Mostly Cloudy
11:04 AM 71.6 °F 66.2 °F 83% 29.48 in 9.0 mi South 9.2 mph - N/A   Mostly Cloudy
11:53 AM 72.0 °F 66.0 °F 81% 29.44 in 9.0 mi South 11.5 mph - 0.00 in   Mostly Cloudy
12:22 PM 71.6 °F 64.4 °F 78% 29.45 in 10.0 mi South 10.4 mph - N/A   Mostly Cloudy
12:53 PM 73.0 °F 64.9 °F 76% 29.41 in 10.0 mi South 15.0 mph - N/A   Mostly Cloudy
1:53 PM 72.0 °F 61.0 °F 68% 29.37 in 10.0 mi SSW 19.6 mph 27.6 mph 0.00 in   Scattered Clouds
3:17 PM 66.2 °F 57.2 °F 73% 29.38 in 1.5 mi WSW 13.8 mph 31.1 mph 0.10 in Rain , Thunderstorm Heavy Rain
3:23 PM 64.4 °F 59.0 °F 83% 29.38 in 0.8 mi West 10.4 mph 31.1 mph 0.15 in Rain , Thunderstorm Heavy Thunderstorms and Rain
3:28 PM 64.4 °F 60.8 °F 88% 29.39 in 1.5 mi West 9.2 mph - 0.16 in Rain , Thunderstorm Thunderstorms and Rain
3:31 PM 64.4 °F 59.0 °F 83% 29.38 in 2.5 mi West 9.2 mph 17.3 mph 0.16 in Rain , Thunderstorm Thunderstorms and Rain
3:33 PM 64.4 °F 60.8 °F 88% 29.38 in 3.0 mi West 9.2 mph 17.3 mph 0.16 in Rain , Thunderstorm Thunderstorms and Rain
3:53 PM 64.0 °F 60.1 °F 87% 29.37 in 10.0 mi West 6.9 mph - 0.16 in Rain , Thunderstorm Light Thunderstorms and Rain
4:00 PM 64.4 °F 60.8 °F 88% 29.39 in 10.0 mi WSW 8.1 mph - 0.00 in Rain Light Rain
4:53 PM 66.0 °F 57.0 °F 73% 29.38 in 10.0 mi WNW 9.2 mph - 0.00 in   Scattered Clouds
5:53 PM 64.0 °F 54.0 °F 70% 29.41 in 10.0 mi West 13.8 mph 19.6 mph 0.00 in   Overcast
6:53 PM 63.0 °F 53.1 °F 70% 29.45 in 10.0 mi West 5.8 mph - N/A   Overcast
7:53 PM 62.1 °F 53.1 °F 72% 29.47 in 10.0 mi West 4.6 mph - N/A   Scattered Clouds
8:53 PM 63.0 °F 52.0 °F 67% 29.51 in 10.0 mi WNW 12.7 mph 23.0 mph N/A   Overcast
9:53 PM 60.1 °F 48.0 °F 64% 29.52 in 10.0 mi West 8.1 mph - N/A   Clear
10:53 PM 57.0 °F 48.9 °F 74% 29.55 in 10.0 mi WSW 5.8 mph - N/A   Clear
11:53 PM 57.9 °F 45.0 °F 62% 29.57 in 10.0 mi West 9.2 mph - N/A   Clear